Regional Weather Roundup
Issued by NWS Little Rock, AR

Home | Current Version | Previous Version | Text Only | Print | Product List | Glossary On
Versions: 1 2 3 4 5 6 7 8 9 10 11 12 13 14 15 16 17 18 19 20 21 22 23 24 25 26 27 28 29 30 31 32 33 34 35 36 37 38 39 40 41 42 43 44 45 46 47 48 49 50
012
ASUS44 KLZK 031605
RWRLZK

WEATHER ROUNDUP FOR ARKANSAS
NATIONAL WEATHER SERVICE LITTLE ROCK AR
1100 AM CDT TUE MAY 03 2016

NOTE: "FAIR" INDICATES FEW OR NO CLOUDS BELOW 12,000 FEET WITH NO
SIGNIFICANT WEATHER AND/OR OBSTRUCTIONS TO VISIBILITY.

ARZ001-003-010-029-031700-
NORTHWEST ARKANSAS

CITY           SKY/WX    TMP DP  RH WIND       PRES   REMARKS
FAYETTEVILLE   PTSUNNY   57  45  64 N6        30.11S
FORT SMITH     MOSUNNY   61  44  53 CALM      30.11S
HARRISON       PTSUNNY   58  45  62 NW8       30.10S
BENTONVILLE    MOSUNNY   57  43  58 CALM      30.13R
ROGERS         MOSUNNY   57  45  64 NW8       30.12S
SILOAM SPGS    SUNNY     57  43  58 CALM      30.13S
HIGHFILL       SUNNY     59  45  59 N8        30.11S
SPRINGDALE     MOSUNNY   59  45  58 N7        30.13R
$$

ARZ004-005-016-031700-
NORTH CENTRAL ARKANSAS

CITY           SKY/WX    TMP DP  RH WIND       PRES   REMARKS
BATESVILLE     CLOUDY    61  48  63 NW3       30.08F
FLIPPIN        MOSUNNY  N/A N/A N/A NE6       30.06S
MTN HOME       PTSUNNY   60  44  55 VRB7      30.07S
$$

ARZ040-041-031700-
WEST CENTRAL ARKANSAS

CITY           SKY/WX    TMP DP  RH WIND       PRES   REMARKS
MENA           NOT AVBL
MOUNT IDA      PTSUNNY   63  47  55 VRB3      30.07S
$$

ARZ009-017-025-026-028-031700-
NORTHEAST ARKANSAS

CITY           SKY/WX    TMP DP  RH WIND       PRES   REMARKS
JONESBORO      CLOUDY    60  49  66 N7        30.06S
NEWPORT        CLOUDY    61  50  67 N6        30.09S
WALNUT RIDGE   CLOUDY    59  46  63 NW7       30.07R
BLYTHEVILLE    CLOUDY    61  53  75 N7        30.05S
NW BLYTHEVILLE CLOUDY    59  50  72 N6        30.06R
$$

ARZ022-023-033-042-044-031700-
CENTRAL ARKANSAS

CITY           SKY/WX    TMP DP  RH WIND       PRES   REMARKS
LITTLE ROCK    PTSUNNY   63  46  54 VRB6      30.08F
N LITTLE ROCK    N/A     59  48  67 N6        30.07S
SEARCY         CLOUDY    63  47  55 N9        30.08F
HOT SPRINGS    CLOUDY    61  46  57 VRB7      30.09S
RUSSELLVILLE   CLOUDY    61  47  59 NW6       30.09S
$$

ARZ036-031700-
EAST ARKANSAS

CITY           SKY/WX    TMP DP  RH WIND       PRES   REMARKS
WEST MEMPHIS   CLOUDY    60  52  74 N6        30.04S
$$

ARZ050-053-066-070-073-031700-
SOUTHWEST ARKANSAS

CITY           SKY/WX    TMP DP  RH WIND       PRES   REMARKS
ARKADELPHIA    PTSUNNY   64  52  65 VRB6      30.09S
CAMDEN         PTSUNNY   66  50  55 NW6       30.08S
TEXARKANA      MOSUNNY   63  48  58 N8        30.10S
EL DORADO      PTSUNNY   63  54  72 NW10      30.07S
DE QUEEN       SUNNY     64  47  53 N8        30.09F
$$

ARZ056-057-069-031700-
SOUTHEAST ARKANSAS

CITY           SKY/WX    TMP DP  RH WIND       PRES   REMARKS
PINE BLUFF     CLOUDY    62  51  67 N10       30.07S
STUTTGART      CLOUDY    63  50  63 N9        30.08S
MONTICELLO     CLOUDY    66  53  63 VRB6      30.06R

$$






USA.gov is the U.S. government's official web portal to all federal, state and local government web resources and services.